User: anonymous   Login
Location: West Cummington
(42.4920°N, 72.9680°W)
Time: 05:44:12
(UTC-04:00)
Language:

Cosmos 841 Rocket - Orbit

View from above orbital plane
View from above orbital plane
View from above satellite
View from above satellite

Ground track
Ground track

The orbit data is extracted from the following two-line orbital elements,

1 09023U 76069B   16148.34348743  .00000084  00000-0  35304-4 0  9999
2 09023  74.0438  88.8285 0017758 345.9457  14.1200 14.39491542 89306
Epoch (UTC): 27 May 2016 08:14:37
Eccentricity: 0.0017758
inclination: 74.0438°
perigee height: 747 km
apogee height: 773 km
right ascension of ascending node: 88.8285°
argument of perigee: 345.9457°
revolutions per day: 14.39491542
mean anomaly at epoch: 14.1200°
orbit number at epoch: 8930

The dashed part of the orbit path shows where the satellite is in the earth's shadow,  

DLR